Theta_e
295 295 295 295 296 297 297 296 297 297 298 297 297 297 297 297 297 295 292 291 287 284 284 285 286 282 282 282 278 281 281 281 281 278 276 274 274 273 273 273 273 274 274 273 272 271 270 276 275 275 279 275 274 271
295 294 295 294 295 296 296 296 296 297 297 296 297 298 297 296 296 295 289 293 291 285 284 287 287 287 286 284 282 282 281 280 282 279 277 276 273 272 272 273 274 274 276 275 275 276 278 277 279 278 275 278 277 276
294 294 294 294 295 296 296 296 296 297 296 296 296 296 295 295 295 295 289 287 287 284 283 283 282 286 286 285 286 280 284 283 284 283 280 278 275 276 273 274 273 275 277 276 277 278 278 279 278 277 275 278 278 278
293 293 293 294 294 295 296 296 296 297 296 296 296 296 295 294 295 295 289 289 288 284 279 279 286 282 284 284 284 287 285 286 284 284 281 278 276 277 276 276 276 276 276 275 276 279 279 279 280 280 277 276 277 276
292 293 293 293 295 295 296 296 296 296 295 295 295 295 295 295 295 295 292 290 291 286 279 277 280 279 281 282 283 287 286 285 284 282 279 278 278 278 276 277 275 277 275 275 275 278 278 280 281 280 278 277 277 276
292 292 293 294 295 295 295 296 296 295 295 295 295 295 295 295 295 290 284 289 290 287 280 276 275 274 277 279 281 281 284 284 284 282 279 280 281 278 276 274 276 277 277 277 278 279 279 281 280 279 278 278 277 276
292 292 293 294 295 295 295 295 295 295 295 295 295 295 295 295 292 284 282 287 289 286 278 274 272 276 274 274 279 280 283 281 281 281 279 279 279 280 276 274 276 276 276 275 276 276 278 277 275 276 275 275 274 273
291 292 293 294 294 294 295 295 295 295 295 295 295 295 296 296 293 287 290 292 287 279 277 270 271 274 275 275 277 275 278 279 275 275 276 272 277 278 273 276 276 275 274 274 274 273 273 273 274 273 272 272 271 272
291 291 293 293 294 294 294 295 295 294 293 293 294 293 289 286 284 285 292 286 283 283 275 269 271 270 275 272 271 275 272 274 273 272 271 271 275 273 274 273 273 272 271 271 271 270 270 271 272 271 270 270 272 271
290 291 292 293 293 294 294 294 295 294 294 293 288 283 279 284 291 291 285 283 281 275 272 270 265 270 273 270 270 271 270 268 271 268 268 271 273 272 272 271 271 270 269 268 267 271 270 271 270 271 270 270 272 273
290 291 292 293 293 294 295 294 293 293 291 283 278 280 285 289 285 281 276 274 274 273 269 267 267 271 272 272 269 266 268 265 269 268 269 269 271 273 271 269 267 265 264 265 266 267 266 266 266 267 269 268 269 270
289 290 291 292 293 293 294 294 293 287 285 285 284 285 282 278 277 275 272 271 271 271 268 270 269 270 270 269 271 265 267 265 268 261 268 268 272 270 267 266 265 262 261 263 262 264 264 265 264 265 266 267 267 266
289 290 291 291 292 293 294 293 292 291 290 284 277 274 274 272 268 269 270 270 269 267 268 268 269 268 268 268 263 265 267 265 259 265 266 269 269 269 264 262 263 261 260 260 262 262 264 264 263 263 264 265 266 266
288 289 290 290 291 292 293 292 292 289 283 276 269 268 269 268 268 270 270 271 270 269 266 266 266 268 263 265 259 266 258 257 263 263 266 270 267 263 260 258 255 260 258 257 259 259 258 258 260 259 260 260 262 264
288 288 289 288 291 291 291 291 288 280 277 272 270 268 268 268 265 264 262 264 267 268 267 266 266 268 263 262 260 260 261 262 263 267 270 270 266 259 260 262 257 256 256 258 258 258 258 258 258 260 258 258 261 260
288 286 284 287 290 290 289 282 274 270 265 266 265 266 260 264 266 264 263 265 267 269 266 266 265 264 264 262 263 264 264 264 268 266 269 266 262 259 260 258 258 256 257 258 259 258 259 256 258 262 259 260 258 259
285 274 286 287 288 288 283 271 269 261 264 263 263 257 262 263 267 265 266 269 269 269 268 265 265 264 263 263 262 261 266 269 269 268 265 264 267 264 259 256 256 256 258 258 258 257 259 258 254 259 265 264 258 259
274 279 286 288 286 278 275 265 262 261 264 259 263 262 258 261 263 264 266 267 269 270 266 268 264 264 264 263 264 266 265 263 261 265 266 263 261 259 259 264 258 257 259 256 254 256 255 257 263 265 259 259 259 260
280 281 285 287 283 275 274 269 265 264 261 256 258 260 260 261 262 265 267 267 267 269 268 267 268 267 266 265 266 264 263 266 269 267 265 258 258 258 258 257 257 258 256 259 262 264 261 256 259 259 259 259 261 261
284 285 285 283 280 270 268 264 261 263 262 261 258 260 261 264 264 264 266 268 269 271 270 269 270 269 268 268 267 267 267 265 268 267 267 267 262 257 261 261 263 259 260 259 258 255 261 262 259 258 257 258 258 259
278 278 280 271 262 262 262 260 260 260 259 261 258 259 262 262 263 264 266 267 270 271 270 272 270 268 262 261 260 261 263 264 268 270 270 268 263 261 261 258 257 258 262 262 263 262 258 262 259 256 256 257 256 256
268 282 266 266 262 261 262 261 261 261 260 258 259 258 258 260 259 262 261 266 269 271 272 272 270 267 265 265 262 260 260 259 254 259 258 263 266 266 265 264 261 264 261 262 260 261 260 257 255 255 255 257 256 258
277 274 265 263 265 263 260 259 262 260 260 260 257 259 258 256 258 261 262 266 268 267 269 269 267 264 266 259 258 257 257 260 262 261 260 261 258 257 259 257 256 261 262 260 254 256 257 253 254 255 256 257 257 257
273 269 262 260 261 260 258 258 258 257 259 260 261 258 258 257 259 261 261 263 265 263 266 266 267 266 264 262 267 265 258 258 258 257 255 260 263 261 254 256 253 253 255 254 254 255 255 255 253 256 257 256 255 253
261 259 262 257 255 258 255 253 253 256 254 256 260 261 258 258 263 260 258 263 260 261 264 265 266 266 269 265 262 258 251 257 263 264 257 255 255 256 257 255 255 254 251 256 258 256 255 253 255 256 255 254 253 253
255 255 258 256 256 256 252 253 251 254 253 257 261 256 254 261 262 264 264 262 259 258 261 266 268 268 265 264 267 262 260 252 255 260 256 252 253 260 259 258 258 259 250 252 254 256 255 255 255 254 254 254 251 250
254 254 251 249 253 256 259 252 255 256 256 260 260 258 261 263 262 263 259 257 258 254 254 254 256 260 264 259 253 251 247 246 249 253 251 250 250 251 256 258 256 257 251 251 252 252 254 254 254 253 253 253 252 251
259 253 257 252 251 251 261 257 260 258 258 260 263 262 262 262 263 258 257 254 252 252 252 250 249 249 252 252 249 249 248 244 245 247 251 253 250 250 248 250 250 257 251 251 254 254 252 252 252 252 251 251 252 252
256 252 255 250 250 251 255 257 258 257 257 262 266 266 263 258 254 254 254 251 250 251 253 252 250 247 247 244 244 244 247 249 256 256 256 255 254 256 250 250 251 252 253 256 259 256 253 251 251 251 250 250 250 249
254 251 252 250 253 255 258 261 258 254 256 255 256 257 257 254 252 249 249 250 251 250 247 245 245 245 248 249 250 251 245 244 248 255 257 255 256 251 248 249 252 255 254 251 253 252 254 250 252 250 251 253 255 256
246 251 252 250 252 251 251 253 252 254 252 253 253 255 255 252 251 248 247 245 244 243 244 246 245 242 248 248 249 252 254 248 244 245 245 246 246 247 249 253 253 250 247 247 247 246 248 249 251 253 254 255 256 256
250 251 253 253 253 249 249 252 254 255 254 255 255 252 251 252 254 252 248 243 244 246 245 242 247 247 243 242 241 242 247 245 246 247 247 247 248 251 252 251 247 245 246 245 244 246 249 251 253 255 255 255 256 255
251 252 254 255 253 253 253 256 255 255 256 255 253 249 247 250 257 251 247 244 244 244 244 243 243 242 243 244 245 246 247 246 248 258 256 257 255 254 248 244 242 242 243 244 249 251 252 254 255 255 256 256 256 257
Wind_Speed
26 27 28 30 31 32 31 30 31 31 30 27 27 27 23 17 13 3 2 7 3 3 2 1 3 2 2 2 3 4 4 2 1 2 1 1 2 2 1 1 1 0 3 2 2 1 4 5 5 2 2 2 2 4
26 27 28 30 31 32 32 31 31 30 27 26 29 31 17 11 10 2 2 2 2 1 2 2 2 3 3 2 3 3 4 3 2 1 1 2 2 2 1 1 1 1 1 1 4 2 2 4 2 1 2 1 3 2
26 27 28 30 31 33 34 31 31 28 24 24 24 15 4 3 6 5 2 3 1 2 2 2 1 2 3 3 3 3 1 4 2 2 1 1 2 2 2 1 2 1 0 2 2 1 3 3 3 3 4 2 2 1
26 27 28 30 31 33 32 32 27 25 22 20 18 13 6 5 2 8 2 3 0 1 2 1 1 1 4 5 4 4 4 4 3 2 0 0 1 1 1 2 2 3 0 3 3 1 3 2 3 3 5 3 3 3
26 27 28 29 32 33 32 31 26 21 19 18 15 13 9 5 5 5 2 3 1 2 1 1 2 1 5 6 7 5 5 4 2 1 1 2 1 1 2 0 4 5 3 2 1 4 3 2 4 3 4 6 7 7
25 26 27 29 31 30 28 26 20 18 17 17 14 12 10 7 7 2 1 0 2 2 1 2 2 4 4 5 5 4 3 2 2 1 1 1 1 2 1 3 2 4 4 4 4 8 8 8 4 5 3 3 6 6
24 26 26 29 29 27 26 25 23 19 16 15 15 13 9 4 3 1 1 1 5 1 1 2 2 3 3 3 2 3 2 2 3 2 2 2 2 2 1 2 2 5 8 8 3 7 2 5 5 8 5 4 4 4
23 25 25 28 26 26 25 24 22 19 11 9 11 10 10 11 7 1 1 8 4 4 2 1 2 2 5 3 2 3 2 2 5 2 2 4 2 2 3 1 4 8 12 2 4 5 5 8 6 3 2 1 2 4
23 24 25 27 25 24 25 25 19 11 7 5 9 5 2 3 1 1 12 11 3 1 1 1 1 1 3 2 2 1 3 3 2 3 3 3 2 4 4 5 10 10 6 11 13 9 5 3 5 3 1 2 3 3
21 22 24 26 24 25 26 23 12 10 11 8 3 2 2 2 7 7 1 1 1 3 3 2 1 1 2 2 2 1 3 2 2 3 4 3 1 2 3 4 6 7 8 7 5 4 5 3 4 4 2 1 3 4
20 21 22 22 23 25 25 13 7 13 6 3 3 2 1 4 0 0 1 1 2 0 2 1 1 1 2 1 2 3 1 1 2 2 2 1 1 2 6 7 5 6 6 4 5 6 5 7 7 5 4 2 1 3
18 20 19 18 22 26 18 9 10 4 1 3 1 2 2 3 1 1 0 1 0 1 1 1 1 1 2 1 2 2 2 0 2 4 1 1 0 2 5 5 6 7 6 5 2 4 6 5 5 4 0 3 2 3
17 18 16 16 20 21 14 9 7 3 3 2 3 3 2 2 3 0 1 1 2 2 2 2 1 1 1 3 4 1 3 2 1 2 1 2 2 3 4 4 4 6 6 4 6 4 5 4 4 4 3 4 3 3
16 17 16 11 19 17 17 13 13 6 2 1 2 3 2 2 2 3 2 1 1 1 2 1 2 1 1 4 1 4 1 1 3 2 3 1 3 3 3 1 1 5 5 4 4 4 4 4 4 4 4 1 3 3
16 17 11 9 18 16 16 12 9 3 2 1 2 2 3 1 2 0 1 2 2 0 2 2 2 0 2 4 3 4 2 1 3 4 2 2 3 2 2 1 1 2 3 3 3 3 4 4 3 2 2 1 0 1
15 8 4 17 19 17 15 5 4 3 4 2 3 1 1 1 1 1 2 2 2 2 1 1 2 3 1 3 2 4 6 5 3 4 2 3 2 3 3 3 3 3 2 2 2 2 2 2 3 3 3 4 4 4
6 2 13 17 17 11 9 4 4 6 4 3 2 1 1 1 2 1 1 1 1 1 1 2 2 3 3 2 2 4 5 4 4 3 2 3 4 4 4 3 4 4 3 2 2 2 3 4 3 2 4 5 5 4
3 6 12 15 7 4 2 4 5 3 2 2 2 2 2 1 2 2 2 1 2 1 2 1 5 3 4 4 4 4 3 1 1 2 3 3 3 3 4 4 2 2 2 3 2 3 2 3 3 3 3 4 5 2
6 5 6 7 4 2 1 2 3 1 3 1 2 1 1 2 3 2 1 1 1 0 3 1 2 3 4 4 3 3 3 3 4 3 2 2 3 4 3 2 2 2 2 2 2 2 2 2 2 3 3 4 4 4
11 8 5 6 3 2 2 2 2 3 1 1 1 1 2 2 1 1 1 2 1 1 2 3 4 3 3 2 3 3 3 4 4 3 1 2 2 3 2 1 0 1 2 1 1 1 2 0 1 2 3 3 4 5
5 3 7 5 4 5 3 1 3 1 1 1 1 0 2 2 1 1 1 1 1 3 3 4 3 1 1 1 1 1 4 3 4 4 5 3 2 2 1 1 2 1 1 1 2 2 1 2 3 3 3 4 3 4
3 7 3 4 5 4 4 1 2 1 2 2 2 1 1 1 1 1 1 1 4 4 3 2 2 3 2 2 2 1 2 4 4 4 4 5 4 2 2 2 2 1 1 1 1 2 3 2 3 3 3 4 4 4
5 3 4 4 4 3 2 2 2 3 2 3 3 3 3 2 2 1 2 3 4 1 1 1 3 3 4 2 2 2 2 3 4 4 3 3 2 1 1 1 1 0 1 2 1 2 3 4 3 4 3 4 4 4
7 4 4 3 3 2 2 3 2 2 2 1 1 3 3 2 2 1 4 4 2 1 1 4 4 4 2 1 2 1 2 1 4 2 1 3 2 1 0 1 1 1 1 1 1 2 2 3 3 3 3 4 4 4
7 5 4 4 2 3 2 4 4 2 3 3 2 3 2 1 1 3 4 4 2 0 2 2 2 1 3 1 1 1 1 2 3 3 1 1 3 2 1 1 1 1 2 1 1 2 2 3 3 3 4 4 5 7
2 5 4 4 1 2 3 0 3 5 3 2 4 0 1 1 2 6 3 2 2 2 0 2 3 3 1 0 3 3 3 1 2 3 1 3 2 2 3 2 2 1 3 1 1 2 3 3 3 5 5 5 5 6
2 6 3 2 2 3 2 1 2 1 3 5 3 3 2 3 5 3 1 2 2 2 3 3 3 2 1 2 2 2 2 1 0 2 3 3 2 1 2 3 2 2 2 3 2 2 3 4 4 4 5 4 4 5
6 5 5 3 1 1 2 1 3 5 4 2 4 4 4 5 4 2 2 2 2 3 2 2 2 2 1 2 3 4 4 2 2 3 3 3 3 2 2 0 1 1 2 2 2 2 2 3 3 4 4 6 7 4
2 2 5 1 1 2 6 6 5 2 2 1 3 2 2 1 1 2 2 3 3 2 1 2 3 2 3 3 3 2 3 2 4 4 3 2 3 2 2 1 1 1 1 1 3 2 4 3 3 4 5 6 6 7
4 3 5 3 6 6 4 1 1 2 1 1 1 1 1 1 1 0 2 2 1 1 0 0 0 1 2 3 2 2 2 1 1 3 4 3 4 1 0 1 1 2 2 2 3 4 5 4 4 3 4 5 4 6
1 3 3 3 5 4 2 1 1 1 1 1 1 1 1 1 1 0 1 1 1 1 1 2 2 1 3 3 3 3 2 2 1 0 1 2 2 1 0 1 1 2 2 3 3 2 3 3 3 6 8 9 9 8
2 4 5 2 4 4 1 0 1 1 2 1 2 1 1 1 1 2 2 1 1 2 2 1 3 2 2 2 2 1 2 1 1 2 3 2 2 1 0 2 2 2 3 3 2 2 3 5 5 6 8 9 10 10
2 0 1 3 2 2 3 2 2 2 2 2 2 1 1 1 2 2 1 1 2 2 1 1 2 2 2 2 2 1 2 2 2 4 4 4 3 3 4 2 2 2 2 0 2 3 5 6 6 8 9 9 9 10
Wind_Direction
321 321 324 321 320 322 321 322 322 321 319 316 315 308 296 289 285 225 193 172 194 258 290 317 325 313 329 310 308 339 272 200 300 242 185 136 179 173 229 360 325 112 126 128 107 150 274 137 123 237 27 129 244 212
319 320 322 320 319 322 323 322 323 320 318 322 322 314 270 262 272 166 218 204 140 244 355 360 42 28 13 7 308 298 312 300 1 67 141 147 133 177 85 168 169 169 336 313 235 31 25 201 323 102 151 305 205 199
318 319 321 319 319 324 322 323 323 322 322 325 333 342 347 272 279 151 137 157 206 228 203 233 189 57 52 18 299 293 319 335 320 351 136 71 177 149 142 199 205 203 150 311 327 17 267 232 231 254 198 228 198 179
318 320 322 318 322 320 322 321 322 320 323 324 333 338 346 318 314 140 151 176 250 43 264 168 302 297 336 333 277 242 293 289 272 272 194 98 80 260 95 73 36 14 126 335 282 317 261 233 295 305 210 213 165 139
319 320 320 323 319 322 323 320 315 319 319 321 323 325 322 329 284 141 138 188 248 288 302 290 293 17 305 335 322 272 245 284 303 265 2 61 84 159 51 26 47 350 3 356 354 4 320 349 344 353 202 209 198 161
318 320 319 320 324 330 333 343 335 324 319 318 323 315 310 323 132 95 248 75 166 170 136 305 357 314 326 341 354 352 343 326 304 337 67 102 17 360 89 86 37 5 359 325 295 326 291 291 316 345 314 195 178 177
320 319 320 322 331 335 335 338 334 331 323 321 320 305 286 208 108 122 185 144 115 329 95 294 339 353 327 321 341 344 339 42 356 47 39 3 47 8 68 86 8 336 330 320 32 323 288 39 344 337 343 15 85 79
321 319 322 327 332 336 336 334 335 335 348 26 25 31 23 128 115 133 324 134 96 88 59 115 288 324 6 9 338 356 355 43 27 18 34 19 331 360 68 332 350 347 331 154 1 353 282 299 298 341 4 105 103 133
321 318 323 331 331 335 339 332 336 8 350 313 338 339 34 38 138 34 99 87 56 36 140 98 194 232 358 42 307 340 343 64 324 47 37 309 347 47 12 345 338 339 325 303 317 310 308 294 327 333 360 121 163 132
322 319 325 333 332 332 333 322 334 326 321 336 14 29 45 24 109 138 291 186 60 9 31 90 325 150 332 0 68 293 17 51 58 13 298 34 40 3 26 337 320 330 324 321 319 7 357 348 356 327 266 169 165 170
323 321 329 335 338 340 330 333 350 340 7 26 23 38 244 336 183 56 110 83 344 290 25 72 243 145 19 57 109 11 102 348 84 22 336 17 64 46 351 338 346 343 332 307 262 285 285 281 295 310 336 294 197 146
323 323 332 335 342 346 335 16 29 48 321 338 328 12 10 35 47 303 350 308 260 265 127 156 118 323 96 356 103 16 84 341 114 338 354 61 92 355 351 335 336 350 346 350 357 323 332 334 331 307 305 138 106 101
324 323 328 331 344 350 359 42 22 354 321 12 40 39 45 323 40 186 262 230 281 187 185 182 131 20 53 63 71 70 75 71 284 27 136 227 323 324 335 335 341 348 6 18 12 7 8 18 30 12 9 359 61 93
325 324 326 334 335 354 345 351 356 360 28 35 75 323 114 316 246 194 222 260 21 226 164 143 96 27 14 62 30 88 57 260 69 86 210 211 227 266 301 283 305 344 4 22 32 10 14 26 27 26 49 125 151 179
326 327 318 339 337 342 343 349 3 30 76 218 83 240 223 349 249 323 327 295 216 141 144 106 74 69 37 92 30 120 66 14 217 200 202 191 206 233 277 271 301 317 349 21 3 8 5 3 22 28 358 321 266 259
339 347 335 334 327 337 344 9 47 77 51 84 59 91 9 26 291 244 183 256 196 149 113 64 115 73 61 119 116 191 125 208 208 212 195 160 187 209 225 226 238 257 269 302 305 292 296 330 4 359 339 30 13 354
22 229 303 325 318 356 22 71 57 44 131 72 268 9 105 143 230 235 196 235 165 151 238 124 127 196 112 68 259 201 203 193 171 171 173 196 168 185 207 240 247 234 244 273 305 328 330 327 317 15 16 5 350 360
200 272 306 323 6 20 45 47 81 88 224 218 148 227 218 209 192 260 252 251 196 179 150 251 128 151 191 188 235 214 218 203 195 136 151 182 213 213 197 219 247 283 317 309 290 305 310 3 21 24 334 338 309 342
301 301 338 4 57 71 344 27 67 202 231 211 268 278 219 246 252 264 253 197 259 286 121 140 227 212 227 213 208 166 173 202 152 163 170 202 211 218 229 227 304 290 270 281 305 341 346 330 336 333 335 334 336 338
336 342 12 41 77 102 2 324 55 105 235 237 51 289 230 223 240 173 191 154 175 206 195 220 228 226 208 232 187 156 153 159 133 101 110 202 190 182 226 229 160 253 273 263 264 316 343 304 212 342 335 334 328 323
14 346 34 59 44 65 95 39 14 163 162 152 257 139 280 347 33 56 114 356 194 229 224 208 226 228 263 47 358 132 138 165 165 153 167 172 166 180 156 192 225 242 297 1 353 9 334 327 332 334 328 320 300 288
247 21 57 13 71 15 74 333 141 246 79 238 5 45 38 4 293 304 315 196 234 239 209 167 163 144 123 173 167 185 128 114 86 99 77 107 129 177 205 198 186 262 292 1 9 325 318 322 324 315 308 314 304 309
55 51 44 40 58 48 273 14 59 7 72 285 11 17 317 323 242 356 255 226 254 242 127 86 99 61 99 109 114 126 173 135 117 124 123 108 98 102 117 167 200 134 29 56 287 300 301 325 307 309 313 310 330 318
46 52 59 48 55 253 354 17 18 36 29 9 155 285 270 232 322 90 254 250 241 1 160 142 143 115 105 158 188 160 146 151 109 113 130 137 133 127 201 86 102 252 279 313 301 306 310 307 316 319 329 329 323 310
67 308 80 326 349 48 15 348 342 65 246 220 193 268 268 360 205 229 233 264 336 147 148 129 146 88 137 137 111 122 217 166 152 148 152 162 117 124 100 147 193 224 174 267 349 339 316 318 323 334 331 319 318 318
92 279 126 186 254 126 191 264 222 221 191 216 229 358 30 165 231 243 231 320 359 343 40 170 178 153 92 339 143 170 165 153 123 100 202 182 176 135 130 89 14 337 190 219 212 304 325 328 340 331 315 322 308 308
214 266 269 316 109 113 196 254 242 245 216 212 187 159 171 229 241 254 18 32 335 8 327 337 343 345 70 133 99 86 92 86 146 128 108 114 99 67 110 141 192 247 148 203 223 244 304 326 312 310 311 302 285 304
204 157 181 215 103 317 150 215 229 231 229 223 118 183 200 210 250 326 336 20 357 331 11 25 16 343 37 71 95 110 85 82 105 117 115 88 66 60 59 70 269 264 211 208 235 225 235 268 295 313 302 302 306 305
201 209 110 117 68 199 207 204 234 259 317 227 190 213 236 72 2 324 352 342 334 327 43 78 48 48 67 74 61 69 94 78 80 72 68 304 338 304 357 14 358 315 315 302 279 183 227 218 255 266 285 288 298 294
245 155 103 146 153 222 233 164 241 268 327 328 318 132 102 80 36 327 304 328 6 55 54 82 47 16 137 110 124 16 13 51 62 125 147 210 225 230 359 6 328 335 344 7 333 323 345 13 337 332 313 307 304 315
142 87 80 127 216 248 221 167 287 220 343 349 10 141 163 229 305 3 353 353 33 44 62 54 52 7 111 105 111 106 23 351 355 195 165 155 150 137 177 276 325 18 44 45 27 13 345 329 334 327 325 327 331 334
89 177 146 171 270 289 23 118 143 62 330 61 339 42 22 65 47 309 349 36 78 56 22 146 88 42 275 250 257 249 268 257 163 160 156 143 115 93 353 40 45 63 65 53 35 18 343 341 325 329 327 329 326 321
44 111 89 97 19 319 269 125 28 348 16 39 9 339 264 214 149 252 310 119 134 161 158 228 241 247 243 207 163 161 166 204 214 137 138 105 105 78 58 44 51 69 92 69 357 349 346 332 327 334 331 324 317 317